Location: Proctor
(47.8934°N, 114.3048°W)
Time: 18:29:44
(UTC+00:00)

Transit 4A - Pass Details

Date: 19 May 2025
Orbit: 866 x 975 km, 66.8° (Epoch: 13 June)

Event Time Altitude Azimuth Distance (km) Brightness Sun altitude
Rises 09:45:13 0° 326° (NW) 3,599 11.3 -16.1°
Reaches altitude 10° 09:47:56 10° 334° (NNW) 2,635 10.7 -15.9°
Maximum altitude 09:53:43 42° 44° (NE) 1,267 9.2 -15.3°
Drops below altitude 10° 09:59:20 10° 115° (ESE) 2,553 10.3 -14.8°
Sets 10:01:55 0° 123° (ESE) 3,475 10.9 -14.5°
